[[{"header":{"parameterUnit":"m.s-1","parameterCategory":1,"la1":30.2991,"la2":30.254,"lo1":-89.0895,"lo2":-89.0444,"dy":0.0017,"dx":0.0017,"nx":28,"ny":28,"refTime":"2025-01-04T03:00:00:Z","depth":0,"parameterNumber":2,"parameterNumberName":"U-component_of_WINDS"},"data":[0,0,0,0,0,0,0,0,0,0,0,0,0,0,0,0,0,0,0,0,0,0,0,0,0,0,0,0,0,0,0,0,0,0,0,0,0,0,0,0,0,0,0,0,0,0,0,0,0,0,0,0,0,0,0,0,0,0,-3.8828,-3.8829,0,-3.8956,-3.8958,-3.8959,-3.899,-3.8989,-3.8988,-3.8987,-3.9123,-3.9128,-3.9132,0,0,0,0,0,0,0,0,0,0,0,0,0,-3.8614,-3.8618,-3.8828,-3.8829,-3.8831,-3.8956,-3.8958,-3.896,-3.899,-3.8989,-3.8988,-3.8987,-3.9122,-3.9127,-3.9132,0,0,0,0,0,0,0,0,0,0,0,0,0,-3.8721,-3.8619,-3.8827,-3.8861,-3.8865,-3.8956,-3.8958,-3.896,-3.899,-3.8989,-3.8987,-3.8986,-3.912,-3.9126,-3.9133,-3.9201,0,0,-3.9153,-3.9156,0,0,0,0,0,0,0,0,-3.8715,-3.8729,-3.8854,-3.8859,-3.8864,-3.8955,-3.8932,-3.9041,-3.899,-3.8943,-3.8987,-3.8986,-3.9069,-3.908,-3.9107,-3.9207,-3.9213,-3.9154,-3.9158,-3.9161,-3.9163,0,0,0,0,0,0,0,-3.8708,-3.8724,-3.8879,-3.8856,-3.8862,-3.8871,-3.8885,-3.8953,-3.9012,-3.8947,-3.8949,-3.8964,-3.9071,-3.91,-3.911,-3.9215,-3.9154,-3.916,-3.9164,-3.9166,-3.9378,-3.938,0,0,0,0,0,0,-3.8694,-3.8717,-3.8875,-3.8883,-3.8784,-3.8876,-3.8892,-3.8927,-3.9011,-3.9022,-3.8965,-3.8965,-3.9089,-3.9102,-3.9115,-3.9199,-3.9161,-3.9167,-3.9171,-3.9376,-3.9378,-3.938,0,0,0,0,0,0,-3.8689,-3.8707,-3.8869,-3.8801,-3.8822,-3.8881,-3.8921,-3.8931,-3.896,-3.9025,-3.9036,-3.8983,-3.9089,-3.9106,-3.9179,-3.9204,-3.917,-3.9176,-3.9374,-3.9377,-3.9379,-3.9368,0,0,0,0,0,0,-3.8683,-3.8705,-3.873,-3.8801,-3.8825,-3.8929,-3.8923,-3.8934,-3.8971,-3.8972,-3.9045,-3.9056,-3.9089,-3.9169,-3.9186,-3.9213,-3.9181,-3.9372,-3.9376,-3.9378,-3.9366,-3.937,-3.9373,0,0,0,0,0,-3.8675,-3.8723,-3.8731,-3.875,-3.8857,-3.8931,-3.8945,-3.8981,-3.8972,-3.8999,-3.9041,-3.9054,-3.9199,-3.9176,-3.9195,-3.9225,-3.9371,-3.9375,-3.9378,-3.9365,-3.9369,-3.9373,0,0,0,0,0,0,-3.8655,-3.8733,-3.8743,-3.8815,-3.8866,-3.8936,-3.8969,-3.8984,-3.904,-3.9039,-3.9083,-3.9099,-3.9169,-3.9205,-3.9178,-3.9295,-3.9285,-3.9293,-3.9269,-3.9273,-3.9276,-3.9265,-3.9187,0,0,0,0,0,-3.8659,-3.871,-3.8776,-3.8833,-3.8858,-3.891,-3.8943,-3.8966,-3.9021,-3.9043,-3.9091,-3.9145,-3.9203,-3.9241,-3.9298,-3.9373,-3.9389,-3.9403,-3.9406,-3.9408,-3.9414,-3.9456,-3.9463,-3.9392,-3.9392,-3.9392,0,0,-3.8667,-3.8716,-3.8746,-3.8831,-3.8873,-3.8926,-3.8927,-3.8984,-3.9025,-3.9053,-3.9124,-3.9161,-3.9225,-3.9299,-3.9334,-3.9331,-3.9438,-3.9413,-3.9414,-3.9419,-3.9461,-3.9467,-3.9473,-3.9395,-3.9394,-3.9394,0,0,-3.871,-3.8752,-3.8804,-3.8846,-3.891,-3.8944,-3.8957,-3.9025,-3.905,-3.9122,-3.9144,-3.9195,-3.9294,-3.9338,-3.9374,-3.9435,-3.9449,-3.9453,-3.9469,-3.951,-3.9515,-3.952,-3.9542,-3.9549,-3.9459,-3.9459,-3.9459,0,-3.8713,-3.8793,-3.883,-3.8885,-3.8922,-3.8949,-3.9003,-3.9043,-3.9122,-3.9148,-3.9143,-3.9268,-3.9314,-3.9398,-3.9413,-3.9442,-3.9458,-3.9443,-3.9511,-3.9517,-3.9522,-3.9543,-3.9551,-3.9459,-3.9459,-3.9459,-3.9459,0,-3.8793,-3.8848,-3.8883,-3.8957,-3.8999,-3.9053,-3.91,-3.9138,-3.9159,-3.9194,-3.9268,-3.9323,-3.9391,-3.9414,-3.9435,-3.9503,-3.9498,-3.9502,-3.9492,-3.9528,-3.9548,-3.9557,-3.9458,-3.9458,-3.9459,-3.9459,0,0,-3.8824,-3.8919,-3.8931,-3.8965,-3.9038,-3.9083,-3.914,-3.9205,-3.9237,-3.9292,-3.9341,-3.9425,-3.9428,-3.9469,-3.9496,-3.9532,-3.9577,-3.9532,-3.9534,-3.9537,-3.9654,-3.9649,-3.9658,-3.9587,-3.9589,-3.959,-3.9648,0,-3.8875,-3.8974,-3.901,-3.9093,-3.9145,-3.9172,-3.9222,-3.9273,-3.9308,-3.9359,-3.9399,-3.9457,-3.9458,-3.9483,-3.952,-3.9563,-3.96,-3.956,-3.9634,-3.9636,-3.9614,-3.9668,-3.9664,-3.9715,-3.9656,-3.9658,-3.9659,0,-3.8947,-3.9,-3.9087,-3.9154,-3.9177,-3.9221,-3.9285,-3.9333,-3.9392,-3.9415,-3.9461,-3.9485,-3.9548,-3.9536,-3.9622,-3.9594,-3.9627,-3.9653,-3.9656,-3.9663,-3.9648,-3.9675,-3.9733,-3.974,-3.9672,-3.9671,-3.967,0,-3.8959,-3.9054,-3.9119,-3.9147,-3.9227,-3.9257,-3.9292,-3.935,-3.9388,-3.9444,-3.9469,-3.9533,-3.9568,-3.9618,-3.966,-3.9647,-3.9743,-3.9734,-3.9764,-3.9763,-3.9781,-3.9779,-3.9843,-3.9805,-3.9805,-3.9805,-3.9804,0,-3.9011,-3.9063,-3.9125,-3.9164,-3.9224,-3.9266,-3.9325,-3.9362,-3.9414,-3.9462,-3.9492,-3.9537,-3.959,-3.9643,-3.9677,-3.9743,-3.9759,-3.978,-3.9788,-3.9777,-3.9774,-3.9797,-3.9794,-3.9807,-3.9806,-3.9806,-3.9806,0,-3.9034,-3.9078,-3.915,-3.9219,-3.9238,-3.9279,-3.934,-3.938,-3.9417,-3.9478,-3.9495,-3.9553,-3.9617,-3.9664,-3.9747,-3.977,-3.9841,-3.985,-3.982,-3.9823,-3.985,-3.9846,-3.993,-3.9943,-3.9897,-3.9898,-3.9898,0,-3.9063,-3.9104,-3.9177,-3.9211,-3.9245,-3.93,-3.9338,-3.9382,-3.9421,-3.9492,-3.9524,-3.9589,-3.9644,-3.9745,-3.9795,-3.9859,-3.9869,-3.9895,-3.9879,-3.9866,-3.9868,-3.9865,-3.9869,-3.9896,-3.9896,-3.9896,-3.9897,0,-3.911,-3.913,-3.9182,-3.9243,-3.9288,-3.9338,-3.9389,-3.9416,-3.947,-3.9512,-3.9577,-3.9619,-3.9703,-3.9768,-3.9837,-3.9875,-3.9895,-3.9901,-3.9911,-3.9899,-3.9879,-3.9889,-3.9824,-3.9899,-3.9899,-3.9898,-3.9898,-3.9898,-3.9136,-3.9173,-3.9231,-3.9289,-3.9332,-3.9379,-3.942,-3.9462,-3.9516,-3.9587,-3.9611,-3.9677,-3.9738,-3.9832,-3.9871,-3.9925,-3.9925,-3.994,-3.9943,-3.9946,-3.9944,-3.9872,-3.9938,-3.9938,-3.9938,-3.9938,-3.9938,0,-3.9183,-3.9222,-3.9275,-3.9345,-3.9391,-3.9405,-3.9463,-3.9501,-3.9559,-3.9612,-3.9665,-3.974,-3.9803,-3.9859,-3.9926,-3.9958,-3.9969,-3.9974,-3.9971,-3.998,-3.9941,-3.9925,-3.9964,-3.9964,-3.9964,-3.9964,-3.9964,-3.9964,-3.9213,-3.9276,-3.9303,-3.9389,-3.9428,-3.9492,-3.9524,-3.9568,-3.9611,-3.9692,-3.9744,-3.978,-3.9836,-3.9906,-3.9965,-3.9981,-4.0003,-4.0006,-4.0023,-3.9986,-3.9982,-3.9979,-3.9964,-4.001,-4.0011,-4.0057,-4.0057,-4.0057]},{"header":{"parameterUnit":"m.s-1","parameterCategory":1,"la1":30.2991,"la2":30.254,"lo1":-89.0895,"lo2":-89.0444,"dy":0.0017,"dx":0.0017,"nx":28,"ny":28,"refTime":"2025-01-04T03:00:00:Z","depth":0,"parameterNumber":3,"parameterNumberName":"V-component_of_WINDS"},"data":[0,0,0,0,0,0,0,0,0,0,0,0,0,0,0,0,0,0,0,0,0,0,0,0,0,0,0,0,0,0,0,0,0,0,0,0,0,0,0,0,0,0,0,0,0,0,0,0,0,0,0,0,0,0,0,0,0,0,5.1637,5.1638,0,5.1737,5.1738,5.1739,5.1732,5.173,5.1729,5.1727,5.1832,5.1836,5.1841,0,0,0,0,0,0,0,0,0,0,0,0,0,5.1445,5.1448,5.1637,5.1638,5.1639,5.1737,5.1738,5.1739,5.1732,5.173,5.1728,5.1727,5.1831,5.1836,5.1841,0,0,0,0,0,0,0,0,0,0,0,0,0,5.1535,5.1449,5.1637,5.1647,5.1649,5.1736,5.1738,5.174,5.1732,5.173,5.1728,5.1726,5.1829,5.1835,5.1842,5.1925,0,0,5.1861,5.1864,0,0,0,0,0,0,0,0,5.153,5.1542,5.1645,5.1647,5.1649,5.1719,5.1709,5.1802,5.1733,5.1701,5.1727,5.1725,5.1797,5.1806,5.1829,5.193,5.1935,5.1861,5.1865,5.1868,5.187,0,0,0,0,0,0,0,5.1524,5.1538,5.1677,5.1646,5.1649,5.1649,5.1659,5.1726,5.176,5.1704,5.1703,5.1715,5.1798,5.1823,5.1832,5.1936,5.1861,5.1867,5.1871,5.1873,5.2116,5.2119,0,0,0,0,0,0,5.1514,5.1532,5.1673,5.168,5.1583,5.1654,5.1666,5.1699,5.176,5.1767,5.1717,5.1714,5.1814,5.1824,5.1835,5.1941,5.1868,5.1874,5.1877,5.2113,5.2117,5.212,0,0,0,0,0,0,5.151,5.1527,5.1669,5.1606,5.1624,5.166,5.1698,5.1702,5.1728,5.177,5.1776,5.1737,5.1812,5.1827,5.1904,5.1944,5.1877,5.1882,5.211,5.2114,5.2118,5.215,0,0,0,0,0,0,5.1505,5.1525,5.1556,5.1607,5.1627,5.1735,5.17,5.1706,5.1739,5.1736,5.179,5.1797,5.1812,5.1895,5.191,5.1952,5.1887,5.2107,5.2112,5.2117,5.2146,5.2155,5.2163,0,0,0,0,0,5.1498,5.1561,5.1558,5.1575,5.1667,5.1737,5.1749,5.1764,5.1742,5.1774,5.1802,5.1795,5.1937,5.1903,5.192,5.1964,5.2104,5.2111,5.2117,5.2142,5.2153,5.2163,0,0,0,0,0,0,5.1515,5.1568,5.1565,5.1646,5.1687,5.1736,5.1777,5.1775,5.1824,5.182,5.1838,5.185,5.1929,5.1954,5.1915,5.2051,5.2018,5.2028,5.2032,5.2042,5.2051,5.2044,5.1892,0,0,0,0,0,5.1528,5.1579,5.1623,5.1691,5.1711,5.1741,5.1772,5.178,5.1824,5.1842,5.1874,5.1918,5.1973,5.2009,5.2061,5.2149,5.2163,5.2188,5.2197,5.2204,5.2213,5.2265,5.2278,5.2139,5.2139,5.2139,0,0,5.1555,5.1591,5.1622,5.1695,5.1728,5.1783,5.1755,5.1814,5.1856,5.1851,5.1927,5.1952,5.2003,5.2087,5.2125,5.211,5.2254,5.2211,5.2216,5.2222,5.2273,5.2286,5.2298,5.2144,5.2143,5.2142,0,0,5.1634,5.1665,5.1726,5.176,5.181,5.183,5.1845,5.1894,5.1912,5.1988,5.1986,5.2037,5.213,5.2167,5.2198,5.2295,5.2292,5.2312,5.2357,5.2408,5.2419,5.2428,5.2466,5.2479,5.232,5.232,5.232,0,5.1663,5.1744,5.1758,5.1818,5.1852,5.185,5.1914,5.1946,5.2012,5.2036,5.2018,5.2137,5.217,5.2265,5.2289,5.2313,5.2333,5.2306,5.2415,5.2426,5.2435,5.2472,5.2485,5.2322,5.2322,5.2322,5.2322,0,5.1779,5.1836,5.1879,5.1943,5.1981,5.2043,5.2068,5.2106,5.2112,5.2134,5.2214,5.2254,5.2317,5.2339,5.2345,5.2436,5.2426,5.2411,5.2379,5.245,5.2485,5.2499,5.2326,5.2325,5.2324,5.2324,0,0,5.1871,5.1943,5.1959,5.199,5.2046,5.2091,5.2154,5.2215,5.2249,5.2294,5.235,5.243,5.2418,5.2453,5.2464,5.2508,5.2587,5.2489,5.249,5.2508,5.2695,5.2707,5.2723,5.2585,5.2587,5.2589,5.2691,0,5.1959,5.2069,5.2085,5.2184,5.2239,5.2239,5.2294,5.2336,5.2359,5.2411,5.2436,5.2494,5.2472,5.2494,5.2538,5.2568,5.2625,5.256,5.2639,5.2642,5.2629,5.274,5.2753,5.2847,5.2705,5.2707,5.2709,0,5.2075,5.2125,5.2229,5.2281,5.2305,5.2354,5.2413,5.2461,5.251,5.2524,5.2565,5.2571,5.2639,5.2603,5.2699,5.2655,5.2688,5.2708,5.2712,5.2722,5.2681,5.2756,5.2877,5.2893,5.273,5.2728,5.2726,0,5.2137,5.2229,5.2305,5.233,5.2392,5.2427,5.2455,5.2501,5.2538,5.259,5.2615,5.2674,5.2707,5.2754,5.2777,5.2747,5.2873,5.2838,5.2889,5.2889,5.2917,5.2916,5.3049,5.2934,5.2934,5.2934,5.2933,0,5.2235,5.23,5.2334,5.238,5.2454,5.2472,5.2545,5.2572,5.2614,5.2668,5.267,5.2721,5.2747,5.2802,5.282,5.29,5.2914,5.2929,5.2934,5.2931,5.2929,5.2954,5.295,5.2937,5.2936,5.2936,5.2935,0,5.2317,5.2341,5.2424,5.2476,5.2491,5.2544,5.2589,5.2636,5.2659,5.2727,5.2745,5.2781,5.2847,5.2874,5.2954,5.2967,5.3059,5.3057,5.3043,5.3045,5.3096,5.3092,5.3252,5.3276,5.3143,5.3144,5.3145,0,5.2379,5.2429,5.2487,5.2523,5.2552,5.2609,5.2647,5.2667,5.2707,5.2768,5.2809,5.2874,5.2928,5.3033,5.3069,5.3131,5.3133,5.3185,5.3142,5.3139,5.3138,5.3136,5.3143,5.3193,5.3194,5.3195,5.3196,0,5.2488,5.2499,5.2552,5.2612,5.2657,5.2704,5.2751,5.2781,5.2809,5.2854,5.2921,5.2963,5.3045,5.3112,5.3177,5.3208,5.3209,5.3209,5.3225,5.3224,5.3215,5.3224,5.3067,5.3206,5.3205,5.3204,5.3204,5.3203,5.2565,5.2611,5.2659,5.272,5.2757,5.2802,5.2849,5.2878,5.2934,5.3003,5.3012,5.3085,5.3136,5.3223,5.3257,5.3316,5.3303,5.3325,5.3331,5.3337,5.3342,5.3203,5.3327,5.3327,5.3327,5.3327,5.3326,0,5.2677,5.2709,5.2764,5.283,5.2879,5.2873,5.2925,5.2967,5.3031,5.3078,5.3131,5.321,5.3275,5.3316,5.3382,5.3422,5.3425,5.3439,5.3438,5.3446,5.3348,5.3329,5.3436,5.3436,5.3436,5.3436,5.3436,5.3436,5.2742,5.282,5.2837,5.2935,5.2967,5.3038,5.3068,5.311,5.3148,5.3236,5.329,5.3316,5.3361,5.3431,5.3492,5.3503,5.3528,5.3545,5.3555,5.3464,5.3452,5.3441,5.3424,5.3549,5.3549,5.3648,5.3649,5.365]}]]